Home   Weather   Long Beach   Past weeks

Flag for USA Past Weather in Long Beach, California, USA — Yesterday and Last 2 Weeks

Now
59 °F

Partly sunny.


Feels Like: 59 °F
Forecast: 49 / 60 °F
Wind: 5 mph from Southwest

Location: Long Beach Airport

Current Time: Jan 18, 2017 at 12:21:51 pm

Latest Report: Jan 18, 2017 at 11:53 am


Visibility: 8 mi

Pressure: 30.14 "Hg

Humidity: 67%

Dew Point: 48 °F

Location of Long BeachLocation

Past Weather in Long Beach — Graph

°F

Long Beach Temperature Yesterday

Maximum temperature yesterday: 66 °F (at 2:53 pm)
Minimum temperature yesterday: 45 °F (at 6:53 am)
Average temperature yesterday: 54 °F

High & Low Weather Summary for the Past Weeks

 TemperatureHumidityPressure
High75 °F (Jan 8, 12:53 pm)100% (Jan 10, 5:53 am)30.21 "Hg (Jan 10, 5:53 am)
Low45 °F (Jan 4, 4:53 am)29% (Jan 7, 2:53 pm)29.92 "Hg (Jan 12, 4:53 am)
Average56 °F79%30.06 "Hg
* Reported Jan 3 10:53 am — Jan 18 10:53 am, Long Beach, Weather by CustomWeather, © 2017

Note: Actual official high and low records may vary slightly from our data, if they occured in-between our weather recording intervals... More about our weather records

Advertising

Long Beach Weather History for the Previous 24 Hours

Scroll right to see more
 ConditionsComfort  
Time TempWeatherWind HumidityBarometerVisibility
10:53 am
Wed, Jan 18
58 °FOvercast.No wind70%30.18 "Hg8 mi
9:53 am56 °FPartly sunny.No wind72%30.21 "Hg6 mi
8:53 am52 °FPartly sunny.3 mph77%30.20 "Hg6 mi
7:53 am49 °FPartly sunny.No wind84%30.19 "Hg6 mi
6:53 am48 °FPassing clouds.No wind83%30.17 "Hg8 mi
5:53 am48 °FOvercast.No wind86%30.16 "Hg8 mi
4:53 am48 °FPassing clouds.No wind86%30.15 "Hg8 mi
3:53 am49 °FFog.3 mph86%30.16 "Hg6 mi
2:53 am48 °FFog.3 mph89%30.15 "Hg6 mi
2:18 am48 °FFog.No wind93%30.15 "Hg4 mi
1:53 am47 °FFog.No wind93%30.15 "Hg4 mi
12:53 am49 °FFog.No wind90%30.16 "Hg4 mi
11:53 pm
Tue, Jan 17
50 °FClear.No wind89%30.16 "Hg7 mi
10:53 pm53 °FClear.No wind86%30.16 "Hg7 mi
9:53 pm53 °FClear.No wind86%30.15 "Hg7 mi
8:53 pm54 °FClear.No wind83%30.13 "Hg7 mi
7:53 pm56 °FClear.No wind81%30.12 "Hg8 mi
6:53 pm57 °FClear.7 mph81%30.12 "Hg9 mi
5:53 pm58 °FClear.8 mph72%30.11 "Hg10 mi
4:53 pm61 °FSunny.10 mph50%30.09 "Hg10 mi
3:53 pm65 °FSunny.No wind47%30.07 "Hg10 mi
2:53 pm66 °FSunny.5 mph33%30.07 "Hg10 mi
1:53 pm64 °FSunny.5 mph43%30.08 "Hg10 mi
12:53 pm63 °FSunny.No wind54%30.08 "Hg10 mi
Weather by CustomWeather, © 2017

See weather overviewHow to use our weather pages